SCP
-0 0 0 0 0 0 0 0 0 0 0 0 0 0 0 0 0 0 0 0 0 0 0 0 0 0 0 0 0 0 0 0 0 0 0 0 0 0 0 0 0 0 0
-0 -0 -0 0 0 0 0 0 0 0 0 0 0 0 0 0 0 0 0 0 0 0 0 0 0 0 0 0 0 0 0 0 0 0 0 0 0 0 0 0 0 0 0
0 0 0 0 0 0 0 0 0 0 0 0 0 0 0 0 0 0 0 0 0 0 0 0 0 0 0 0 0 0 0 0 0 0 0 0 0 0 0 0 0 0 0
0 0 0 0 0 0 0 0 0 0 0 0 0 0 0 0 0 0 0 0 0 0 0 0 0 0 0 0 0 0 0 0 0 0 0 0 0 0 0 0 0 0 0
0 0 0 0 0 0 0 0 0 0 0 0 0 0 0 0 0 0 0 0 0 0 0 0 0 0 0 0 0 0 0 0 0 0 0 0 0 0 0 0 0 0 0
0 0 0 0 0 0 0 0 0 0 0 0 0 0 0 0 0 0 0 0 0 0 0 0 0 0 0 0 0 0 0 0 0 0 0 0 0 0 0 0 0 0 0
0 0 0 0 0 0 0 0 0 0 0 0 0 0 0 0 0 0 0 0 0 0 0 0 0 0 0 0 0 0 0 0 0 0 0 0 0 0 0 0 0 0 0
0 0 0 0 0 0 0 0 0 0 0 0 0 0 0 0 0 0 0 0 0 0 0 0 0 0 0 0 0 0 0 0 0 0 0 0 0 0 0 0 0 0 0
0 0 0 0 0 0 0 0 0 0 0 0 0 0 0 0 0 0 0 0 0 0 0 0 0 0 0 0 0 0 0 0 0 0 0 0 0 0 0 0 0 0 0
0 0 0 0 0 0 0 0 0 0 0 0 0 0 0 0 0 0 0 0 0 0 0 0 0 0 0 0 0 0 0 0 0 0 0 0 0 0 0 0 0 0 0
0 0 0 0 0 0 0 0 0 0 0 0 0 0 0 0 0 0 0 0 0 0 0 0 0 0 0 0 0 0 0 0 0 0 0 0 0 0 0 0 0 0 0
0 0 0 0 0 0 0 0 0 0 0 0 0 0 0 0 0 0 0 0 0 0 0 0 0 0 0 0 0 0 0 0 0 -0 0 0 0 0 0 0 0 0 0
0 0 0 0 0 0 0 0 0 0 0 0 0 0 0 0 0 0 0 0 0 0 0 0 0 0 0 0 0 0 0 0 0 0 0 0 -0 -0 0 0 0 0 0
0 0 0 0 0 0 0 0 0 0 0 0 0 0 0 0 0 0 0 0 0 0 0 0 0 0 0 0 0 -0 0 0 0 0 0 -0 -0 -0 0 0 0 0 -0
0 0 0 0 0 0 0 0 0 0 0 0 0 0 0 0 0 0 0 0 0 0 0 0 -0 0 -0 -0 -0 0 0 -0 0 0 0 -0 -0 -0 -0 -0 -0 -0 -0
0 0 0 0 0 0 0 0 0 0 0 0 0 0 0 0 0 0 0 0 0 0 0 -0 -0 -0 0 0 -0 0 0 0 0 0 0 0 0 0 -0 0 0 -0 0
0 0 0 0 0 0 0 0 0 0 0 0 0 0 0 0 0 0 0 0 0 0 0 0 0 0 0 0 -0 0 0 0 0 0 -0 0 0 -0 0 -0 0 -0 0
0 0 0 0 0 0 0 0 0 0 0 0 0 0 0 0 0 0 0 0 0 0 0 0 -0 -0 0 0 0 0 0 0 0 0 0 0 0 -0 -0 -0 0 0 0
0 0 0 0 0 0 0 0 0 0 0 0 0 0 0 0 0 0 0 0 0 0 0 0 0 0 0 0 0 0 0 -0 0 0 0 0 -0 -0 -0 0 0 0 0
0 0 0 0 0 0 0 0 0 0 0 0 0 0 0 0 0 0 0 0 0 0 0 0 0 0 0 0 0 0 0 0 0 0 0 0 0 -0 0 0 0 0 0
0 0 0 0 0 0 0 0 0 0 0 0 0 0 0 0 0 0 0 0 0 0 0 0 0 0 0 0 0 0 0 0 0 0 0 0 0 0 0 0 0 0 0
0 0 0 0 0 0 0 0 0 0 0 0 0 0 0 0 0 0 0 0 0 0 0 0 0 0 0 0 0 0 0 0 0 0 0 0 0 -0 0 0 0 0 0
0 0 0 0 0 0 0 0 0 0 0 0 0 0 0 0 0 0 0 0 0 -0 -0 -0 0 0 0 0 0 0 0 0 0 0 0 0 0 0 0 0 0 0 0
0 0 0 0 0 0 0 0 0 0 0 0 0 0 0 0 0 0 0 -0 -0 -0 -0 0 0 0 0 0 0 0 0 0 0 0 0 0 0 0 0 0 0 0 0
0 0 0 0 0 0 0 0 0 0 0 0 0 0 0 0 0 -0 -0 -0 -0 -0 0 0 0 0 0 0 0 0 0 0 0 0 0 0 0 0 0 0 0 0 0
0 0 0 0 0 0 0 0 0 0 0 0 0 0 0 0 0 0 0 0 0 0 0 0 0 0 0 0 0 0 0 0 0 0 0 0 0 0 0 0 0 0 0
Wind_Speed_500mb
29 31 30 34 31 28 22 23 29 31 38 43 46 45 48 52 50 50 46 45 45 43 39 35 37 37 36 34 39 42 42 44 42 43 38 33 23 18 11 14 17 14 18
36 34 34 34 30 24 22 24 22 22 26 31 33 38 41 44 45 45 39 40 43 44 45 41 41 41 40 41 43 40 42 42 36 39 36 21 23 5 12 17 9 20 17
40 38 37 34 32 29 20 25 23 22 21 23 30 38 41 43 49 46 42 40 45 46 49 51 46 45 43 45 42 39 39 41 35 33 25 13 7 31 14 12 23 20 24
46 42 38 33 28 26 25 26 22 18 19 25 30 34 39 48 50 48 41 40 41 45 48 50 47 43 43 43 35 33 38 39 35 32 33 27 31 19 25 33 33 32 31
49 37 33 29 28 26 30 23 12 15 20 24 26 26 33 39 44 45 45 46 47 45 47 49 49 46 46 38 36 35 37 39 36 33 34 29 31 29 35 48 55 42 34
29 26 26 28 30 31 25 18 16 19 18 23 24 27 30 33 41 44 50 59 58 52 49 45 56 54 44 41 38 33 35 35 32 31 31 30 30 32 35 46 51 52 55
32 31 29 28 26 26 22 17 19 18 22 24 27 29 28 32 39 43 49 53 57 56 50 45 42 43 49 38 31 32 26 27 28 26 25 30 33 35 38 45 51 52 56
32 30 29 27 28 26 19 20 23 23 28 30 30 30 34 34 40 45 53 57 52 52 49 45 46 44 46 36 42 37 33 31 30 31 30 30 33 36 38 43 45 50 49
36 33 31 30 32 23 18 20 21 31 32 31 33 36 36 39 40 47 55 55 53 52 49 52 53 43 38 40 38 37 32 33 29 30 32 33 32 28 33 38 35 36 33
34 29 28 29 30 19 21 27 30 33 31 32 38 38 41 40 45 54 54 55 55 53 54 55 54 49 46 45 40 32 34 29 25 26 28 28 26 27 30 30 28 30 33
27 29 27 28 31 26 30 36 36 32 32 34 35 40 40 46 48 54 51 50 51 50 56 57 55 48 44 45 40 31 35 32 29 27 28 25 24 28 30 30 30 29 28
27 28 28 28 29 32 33 33 28 30 34 37 35 41 48 53 61 57 48 47 53 53 58 54 52 43 35 33 35 33 33 30 31 28 26 19 20 25 27 27 29 30 28
28 25 25 24 27 28 24 22 26 32 34 35 42 51 60 65 59 47 47 52 54 55 51 50 45 29 28 31 35 31 27 27 32 19 22 16 17 23 26 23 20 21 21
17 20 15 11 4 6 13 23 28 30 38 46 51 55 54 53 50 48 49 51 52 50 43 42 33 25 22 24 29 27 31 31 25 19 20 14 16 22 23 15 11 10 29
18 17 8 2 8 15 23 26 29 34 41 48 52 48 49 50 48 45 43 42 44 44 39 36 26 26 22 24 21 14 32 30 25 16 13 11 16 17 16 13 21 18 27
12 7 2 8 18 22 21 24 30 36 46 46 47 51 50 44 43 39 38 40 44 43 37 34 28 23 29 25 26 22 28 23 19 15 16 8 12 9 14 19 16 33 11
10 2 9 17 18 17 20 26 35 39 42 45 45 43 42 40 38 35 36 38 43 43 36 31 28 21 24 37 34 30 21 24 17 14 16 14 7 3 6 24 23 30 19
1 10 14 14 14 16 23 33 33 39 38 37 35 38 38 35 34 35 39 39 40 40 35 27 25 17 15 22 36 31 28 26 14 13 9 7 4 10 15 17 22 28 38
8 10 15 13 12 22 30 29 31 36 39 35 36 37 37 37 39 45 45 41 36 36 24 24 25 19 12 19 27 28 35 33 18 16 14 13 5 7 11 13 22 26 27
11 16 16 11 19 25 28 32 29 34 37 36 39 42 41 39 44 49 42 38 32 32 30 27 25 14 19 21 30 37 32 32 23 17 13 14 7 3 8 7 12 18 24
12 17 15 13 24 23 29 32 33 36 38 41 43 41 45 39 40 42 33 35 31 26 26 24 23 24 17 27 33 34 38 31 24 20 13 17 11 5 11 5 10 16 21
18 20 19 17 23 23 29 36 32 31 37 45 44 42 48 34 39 37 32 31 28 24 21 26 23 18 9 30 32 36 35 30 21 24 20 16 15 13 12 12 14 9 11
20 20 22 23 24 26 29 35 35 34 46 47 42 38 45 30 35 38 32 27 22 19 27 30 22 26 17 28 34 36 34 29 24 28 22 22 19 13 9 14 12 8 5
22 20 24 29 29 29 34 35 34 43 49 42 39 36 43 29 33 34 32 26 17 22 29 24 16 17 10 35 34 41 38 33 32 25 27 23 16 18 15 10 9 8 8
24 27 29 31 30 31 37 34 34 44 51 38 35 36 31 29 32 28 28 31 29 28 33 33 22 16 21 32 33 41 40 35 34 29 23 21 21 23 25 16 11 9 11
27 35 34 32 28 34 35 31 30 39 43 34 31 24 28 30 31 31 31 26 23 23 20 16 24 16 17 31 40 36 37 35 38 36 28 25 19 27 26 17 14 16 18
Wind_Direction_500mb
228 234 230 236 235 239 253 269 273 279 279 283 288 296 298 296 307 308 298 291 287 286 292 292 287 290 295 294 292 289 292 298 308 307 303 301 299 283 261 279 256 264 257
232 232 231 235 235 242 256 260 274 284 284 284 290 294 297 305 305 311 299 289 294 291 284 282 281 280 285 291 293 285 286 292 301 306 315 316 318 246 242 280 287 250 268
239 236 238 241 242 234 249 256 265 270 279 293 303 305 306 308 315 315 305 287 292 293 281 277 276 271 276 288 286 279 277 286 288 292 294 304 286 307 292 266 283 264 289
246 248 248 248 250 244 240 252 258 271 300 312 313 313 319 317 314 315 315 312 309 307 288 279 275 270 277 282 279 277 273 278 277 284 285 280 280 291 303 295 290 295 282
245 246 247 245 235 227 238 243 267 301 312 311 316 319 334 329 316 314 315 315 308 312 301 281 271 270 277 272 270 272 268 273 270 277 282 279 281 280 280 292 304 302 295
216 211 214 215 224 230 232 242 275 296 318 331 314 302 307 315 308 310 312 310 310 312 310 294 272 264 263 263 266 265 269 267 265 272 270 270 280 284 285 286 295 300 304
192 198 207 215 225 222 225 257 282 299 319 309 298 289 301 303 309 309 316 312 309 311 314 304 294 276 263 254 262 260 259 263 265 272 266 270 279 285 286 286 289 290 301
193 204 211 214 209 237 243 266 284 295 298 285 280 282 287 291 304 311 316 315 306 311 308 311 304 288 275 261 249 250 255 258 260 265 269 276 280 284 285 286 288 291 292
200 203 207 212 220 228 268 283 282 301 285 278 286 289 282 287 297 302 303 302 305 310 306 305 303 293 274 249 241 240 254 262 265 253 263 274 279 283 288 288 284 282 282
199 207 219 230 233 249 271 264 278 280 276 280 282 277 282 287 296 304 299 302 305 310 309 308 306 290 264 260 247 245 243 255 258 260 262 270 275 288 291 287 282 277 280
216 230 229 225 231 248 257 261 265 269 277 276 275 284 292 299 306 306 303 302 304 308 312 311 310 299 265 253 253 241 246 255 254 257 263 263 274 292 288 283 278 283 290
219 209 222 233 244 251 265 270 267 277 277 279 284 295 302 304 305 303 300 303 307 306 311 308 306 297 257 253 234 248 245 246 245 262 255 266 278 299 297 295 285 287 297
200 221 240 243 247 258 269 273 283 284 287 297 305 306 305 304 301 294 298 306 312 313 313 313 300 280 252 249 237 237 235 232 251 256 250 254 282 310 312 307 295 290 293
220 237 235 241 226 309 304 301 299 299 303 306 306 310 311 308 303 294 295 307 313 315 319 324 303 267 254 233 233 236 230 218 238 238 249 256 295 319 325 326 312 325 324
188 161 141 232 334 322 313 305 303 301 305 310 310 309 309 309 304 299 300 305 314 313 304 316 303 271 242 228 231 227 216 219 230 235 263 264 289 328 352 8 341 316 325
104 149 110 318 326 319 301 296 304 311 314 310 309 311 311 314 313 304 303 313 314 314 308 313 305 270 253 236 224 215 195 223 216 244 209 284 300 327 337 7 2 330 319
176 263 334 331 316 294 298 312 319 322 316 311 315 317 315 313 319 315 313 316 318 316 308 304 297 293 269 237 216 209 216 191 198 230 246 246 273 310 7 12 350 12 86
307 337 331 307 281 302 322 326 333 334 326 328 334 331 329 321 320 322 321 314 318 325 316 312 299 270 273 220 199 200 210 192 199 162 184 162 95 76 49 46 42 63 78
324 332 325 296 309 327 333 336 337 343 346 332 331 329 327 325 322 321 323 316 312 326 317 321 319 263 232 200 191 191 184 196 188 190 190 193 135 95 77 57 37 92 82
322 323 311 295 330 341 344 344 334 338 341 340 333 329 322 316 322 322 322 327 318 322 323 322 324 263 231 212 195 204 196 186 191 186 186 181 171 168 68 66 66 85 113
303 318 284 304 346 349 339 335 330 333 334 334 332 333 329 319 327 329 327 329 326 327 328 321 327 310 237 208 206 204 186 196 196 199 208 189 179 170 170 158 127 96 91
311 319 290 303 344 334 326 339 341 334 331 332 329 334 331 320 337 336 332 331 329 332 339 332 325 309 246 198 194 190 185 192 199 199 193 186 165 107 143 147 152 132 88
303 311 300 296 322 323 319 331 344 332 334 329 327 329 339 333 334 336 339 333 338 322 341 339 332 328 246 196 189 194 191 189 194 190 198 180 176 151 135 158 164 168 152
300 313 298 301 312 317 320 328 337 333 333 327 331 328 335 337 343 341 340 336 345 338 340 353 346 326 294 186 200 185 187 189 186 178 187 201 189 210 193 169 162 159 157
296 296 297 306 306 321 319 324 328 328 331 323 335 345 360 356 350 353 356 357 350 347 331 353 359 338 324 185 183 191 190 193 194 191 194 202 217 215 206 202 217 226 211
296 287 291 301 312 315 322 323 327 324 326 324 327 338 350 349 352 342 341 348 351 342 349 29 16 353 323 186 196 185 191 196 201 206 208 216 229 209 211 216 243 249 227
Wind_Speed_850mb
29 31 30 34 31 28 22 23 29 31 38 43 46 45 48 52 50 50 46 45 45 43 39 35 37 37 36 34 39 42 42 44 42 43 38 33 23 18 11 14 17 14 18
36 34 34 34 30 24 22 24 22 22 26 31 33 38 41 44 45 45 39 40 43 44 45 41 41 41 40 41 43 40 42 42 36 39 36 21 23 5 12 17 9 20 17
40 38 37 34 32 29 20 25 23 22 21 23 30 38 41 43 49 46 42 40 45 46 49 51 46 45 43 45 42 39 39 41 35 33 25 13 7 31 14 12 23 20 24
46 42 38 33 28 26 25 26 22 18 19 25 30 34 39 48 50 48 41 40 41 45 48 50 47 43 43 43 35 33 38 39 35 32 33 27 31 19 25 33 33 32 31
49 37 33 29 28 26 30 23 12 15 20 24 26 26 33 39 44 45 45 46 47 45 47 49 49 46 46 38 36 35 37 39 36 33 34 29 31 29 35 48 55 42 34
29 26 26 28 30 31 25 18 16 19 18 23 24 27 30 33 41 44 50 59 58 52 49 45 56 54 44 41 38 33 35 35 32 31 31 30 30 32 35 46 51 52 55
32 31 29 28 26 26 22 17 19 18 22 24 27 29 28 32 39 43 49 53 57 56 50 45 42 43 49 38 31 32 26 27 28 26 25 30 33 35 38 45 51 52 56
32 30 29 27 28 26 19 20 23 23 28 30 30 30 34 34 40 45 53 57 52 52 49 45 46 44 46 36 42 37 33 31 30 31 30 30 33 36 38 43 45 50 49
36 33 31 30 32 23 18 20 21 31 32 31 33 36 36 39 40 47 55 55 53 52 49 52 53 43 38 40 38 37 32 33 29 30 32 33 32 28 33 38 35 36 33
34 29 28 29 30 19 21 27 30 33 31 32 38 38 41 40 45 54 54 55 55 53 54 55 54 49 46 45 40 32 34 29 25 26 28 28 26 27 30 30 28 30 33
27 29 27 28 31 26 30 36 36 32 32 34 35 40 40 46 48 54 51 50 51 50 56 57 55 48 44 45 40 31 35 32 29 27 28 25 24 28 30 30 30 29 28
27 28 28 28 29 32 33 33 28 30 34 37 35 41 48 53 61 57 48 47 53 53 58 54 52 43 35 33 35 33 33 30 31 28 26 19 20 25 27 27 29 30 28
28 25 25 24 27 28 24 22 26 32 34 35 42 51 60 65 59 47 47 52 54 55 51 50 45 29 28 31 35 31 27 27 32 19 22 16 17 23 26 23 20 21 21
17 20 15 11 4 6 13 23 28 30 38 46 51 55 54 53 50 48 49 51 52 50 43 42 33 25 22 24 29 27 31 31 25 19 20 14 16 22 23 15 11 10 29
18 17 8 2 8 15 23 26 29 34 41 48 52 48 49 50 48 45 43 42 44 44 39 36 26 26 22 24 21 14 32 30 25 16 13 11 16 17 16 13 21 18 27
12 7 2 8 18 22 21 24 30 36 46 46 47 51 50 44 43 39 38 40 44 43 37 34 28 23 29 25 26 22 28 23 19 15 16 8 12 9 14 19 16 33 11
10 2 9 17 18 17 20 26 35 39 42 45 45 43 42 40 38 35 36 38 43 43 36 31 28 21 24 37 34 30 21 24 17 14 16 14 7 3 6 24 23 30 19
1 10 14 14 14 16 23 33 33 39 38 37 35 38 38 35 34 35 39 39 40 40 35 27 25 17 15 22 36 31 28 26 14 13 9 7 4 10 15 17 22 28 38
8 10 15 13 12 22 30 29 31 36 39 35 36 37 37 37 39 45 45 41 36 36 24 24 25 19 12 19 27 28 35 33 18 16 14 13 5 7 11 13 22 26 27
11 16 16 11 19 25 28 32 29 34 37 36 39 42 41 39 44 49 42 38 32 32 30 27 25 14 19 21 30 37 32 32 23 17 13 14 7 3 8 7 12 18 24
12 17 15 13 24 23 29 32 33 36 38 41 43 41 45 39 40 42 33 35 31 26 26 24 23 24 17 27 33 34 38 31 24 20 13 17 11 5 11 5 10 16 21
18 20 19 17 23 23 29 36 32 31 37 45 44 42 48 34 39 37 32 31 28 24 21 26 23 18 9 30 32 36 35 30 21 24 20 16 15 13 12 12 14 9 11
20 20 22 23 24 26 29 35 35 34 46 47 42 38 45 30 35 38 32 27 22 19 27 30 22 26 17 28 34 36 34 29 24 28 22 22 19 13 9 14 12 8 5
22 20 24 29 29 29 34 35 34 43 49 42 39 36 43 29 33 34 32 26 17 22 29 24 16 17 10 35 34 41 38 33 32 25 27 23 16 18 15 10 9 8 8
24 27 29 31 30 31 37 34 34 44 51 38 35 36 31 29 32 28 28 31 29 28 33 33 22 16 21 32 33 41 40 35 34 29 23 21 21 23 25 16 11 9 11
27 35 34 32 28 34 35 31 30 39 43 34 31 24 28 30 31 31 31 26 23 23 20 16 24 16 17 31 40 36 37 35 38 36 28 25 19 27 26 17 14 16 18
Wind_Direction_850mb
228 234 230 236 235 239 253 269 273 279 279 283 288 296 298 296 307 308 298 291 287 286 292 292 287 290 295 294 292 289 292 298 308 307 303 301 299 283 261 279 256 264 257
232 232 231 235 235 242 256 260 274 284 284 284 290 294 297 305 305 311 299 289 294 291 284 282 281 280 285 291 293 285 286 292 301 306 315 316 318 246 242 280 287 250 268
239 236 238 241 242 234 249 256 265 270 279 293 303 305 306 308 315 315 305 287 292 293 281 277 276 271 276 288 286 279 277 286 288 292 294 304 286 307 292 266 283 264 289
246 248 248 248 250 244 240 252 258 271 300 312 313 313 319 317 314 315 315 312 309 307 288 279 275 270 277 282 279 277 273 278 277 284 285 280 280 291 303 295 290 295 282
245 246 247 245 235 227 238 243 267 301 312 311 316 319 334 329 316 314 315 315 308 312 301 281 271 270 277 272 270 272 268 273 270 277 282 279 281 280 280 292 304 302 295
216 211 214 215 224 230 232 242 275 296 318 331 314 302 307 315 308 310 312 310 310 312 310 294 272 264 263 263 266 265 269 267 265 272 270 270 280 284 285 286 295 300 304
192 198 207 215 225 222 225 257 282 299 319 309 298 289 301 303 309 309 316 312 309 311 314 304 294 276 263 254 262 260 259 263 265 272 266 270 279 285 286 286 289 290 301
193 204 211 214 209 237 243 266 284 295 298 285 280 282 287 291 304 311 316 315 306 311 308 311 304 288 275 261 249 250 255 258 260 265 269 276 280 284 285 286 288 291 292
200 203 207 212 220 228 268 283 282 301 285 278 286 289 282 287 297 302 303 302 305 310 306 305 303 293 274 249 241 240 254 262 265 253 263 274 279 283 288 288 284 282 282
199 207 219 230 233 249 271 264 278 280 276 280 282 277 282 287 296 304 299 302 305 310 309 308 306 290 264 260 247 245 243 255 258 260 262 270 275 288 291 287 282 277 280
216 230 229 225 231 248 257 261 265 269 277 276 275 284 292 299 306 306 303 302 304 308 312 311 310 299 265 253 253 241 246 255 254 257 263 263 274 292 288 283 278 283 290
219 209 222 233 244 251 265 270 267 277 277 279 284 295 302 304 305 303 300 303 307 306 311 308 306 297 257 253 234 248 245 246 245 262 255 266 278 299 297 295 285 287 297
200 221 240 243 247 258 269 273 283 284 287 297 305 306 305 304 301 294 298 306 312 313 313 313 300 280 252 249 237 237 235 232 251 256 250 254 282 310 312 307 295 290 293
220 237 235 241 226 309 304 301 299 299 303 306 306 310 311 308 303 294 295 307 313 315 319 324 303 267 254 233 233 236 230 218 238 238 249 256 295 319 325 326 312 325 324
188 161 141 232 334 322 313 305 303 301 305 310 310 309 309 309 304 299 300 305 314 313 304 316 303 271 242 228 231 227 216 219 230 235 263 264 289 328 352 8 341 316 325
104 149 110 318 326 319 301 296 304 311 314 310 309 311 311 314 313 304 303 313 314 314 308 313 305 270 253 236 224 215 195 223 216 244 209 284 300 327 337 7 2 330 319
176 263 334 331 316 294 298 312 319 322 316 311 315 317 315 313 319 315 313 316 318 316 308 304 297 293 269 237 216 209 216 191 198 230 246 246 273 310 7 12 350 12 86
307 337 331 307 281 302 322 326 333 334 326 328 334 331 329 321 320 322 321 314 318 325 316 312 299 270 273 220 199 200 210 192 199 162 184 162 95 76 49 46 42 63 78
324 332 325 296 309 327 333 336 337 343 346 332 331 329 327 325 322 321 323 316 312 326 317 321 319 263 232 200 191 191 184 196 188 190 190 193 135 95 77 57 37 92 82
322 323 311 295 330 341 344 344 334 338 341 340 333 329 322 316 322 322 322 327 318 322 323 322 324 263 231 212 195 204 196 186 191 186 186 181 171 168 68 66 66 85 113
303 318 284 304 346 349 339 335 330 333 334 334 332 333 329 319 327 329 327 329 326 327 328 321 327 310 237 208 206 204 186 196 196 199 208 189 179 170 170 158 127 96 91
311 319 290 303 344 334 326 339 341 334 331 332 329 334 331 320 337 336 332 331 329 332 339 332 325 309 246 198 194 190 185 192 199 199 193 186 165 107 143 147 152 132 88
303 311 300 296 322 323 319 331 344 332 334 329 327 329 339 333 334 336 339 333 338 322 341 339 332 328 246 196 189 194 191 189 194 190 198 180 176 151 135 158 164 168 152
300 313 298 301 312 317 320 328 337 333 333 327 331 328 335 337 343 341 340 336 345 338 340 353 346 326 294 186 200 185 187 189 186 178 187 201 189 210 193 169 162 159 157
296 296 297 306 306 321 319 324 328 328 331 323 335 345 360 356 350 353 356 357 350 347 331 353 359 338 324 185 183 191 190 193 194 191 194 202 217 215 206 202 217 226 211
296 287 291 301 312 315 322 323 327 324 326 324 327 338 350 349 352 342 341 348 351 342 349 29 16 353 323 186 196 185 191 196 201 206 208 216 229 209 211 216 243 249 227